Flag for Germany Weather past 2 weeks in Dietzenbach, Hesse, Germany

Now
57 °F

Overcast.


Feels Like: 56 °F
Forecast: 40 / 47 °F
Wind: 7 mph from Southwest

Location: Frankfurt / M-Flughafen

Current Time: Oct 21, 2014 at 1:15:05 PM

Latest Report: Oct 21, 2014 at 1:00 PM


Visibility: 19 mi

Pressure: 29.79 "Hg

Humidity: 76%

Dew point: 50 °F

Location of DietzenbachLocation

Historic Weather in Dietzenbach — Graph

°F

Dietzenbach temperature yesterday

Maximum temperature yesterday: 67 °F (at 1:00 PM)
Minimum temperature yesterday: 53 °F (at 11:00 PM)
Average temperature yesterday: 62 °F

Past Weeks' High & Low Weather Summary

 TemperatureHumidityPressure
High71 °F (Oct 19, 4:00 PM)100% (Oct 10, 12:00 AM)30.20 "Hg (Oct 10, 12:00 AM)
Low47 °F (Oct 12, 7:00 AM)61% (Oct 20, 4:00 PM)29.66 "Hg (Oct 7, 10:00 AM)
Average58 °F91%29.90 "Hg
* Reported Oct 6 12:00 Noon — Oct 21 12:00 Noon, Dietzenbach, Weather by CustomWeather, © 2014

Note: Actual official high and low records may vary slightly from our data, if they occured in-between our weather recording intervals... More about our weather records

Advertising

Dietzenbach weather history for previous 24 hours

 ConditionsComfort  
Time TempWeatherWind HumidityBarometerVisibility
12:00 PM
Oct 21
57 °FOvercast.7 mph80%29.85 "Hg16 mi
10:00 AM52 °FPartly sunny.3 mph94%29.90 "Hg11 mi
9:00 AM50 °FPartly sunny.5 mph97%29.92 "Hg9 mi
8:00 AM49 °FLow clouds.3 mph97%29.93 "Hg11 mi
7:00 AM50 °FFog.5 mph97%29.93 "Hg11 mi
6:00 AM48 °FFog.2 mph97%29.95 "Hg12 mi
4:00 AM49 °FFog.1 mph95%29.98 "Hg19 mi
3:00 AM49 °FPassing clouds.1 mph95%30.00 "Hg22 mi
2:00 AM50 °FFog.2 mph94%30.00 "Hg22 mi
1:00 AM50 °FFog.2 mph95%30.01 "Hg22 mi
12:00 AM50 °FFog.1 mph94%30.01 "Hg22 mi
11:00 PM
Oct 20
53 °FFog.1 mph91%30.02 "Hg25 mi
10:00 PM54 °FFog.1 mph88%30.01 "Hg31 mi
9:00 PM57 °FPassing clouds.1 mph80%30.01 "Hg31 mi
8:00 PM60 °FPassing clouds.3 mph70%30.02 "Hg31 mi
7:00 PM60 °FPassing clouds.2 mph68%30.02 "Hg31 mi
6:00 PM63 °FOvercast.3 mph61%30.02 "Hg28 mi
4:00 PM65 °FOvercast.5 mph61%30.05 "Hg25 mi
3:00 PM66 °FOvercast.7 mph62%30.05 "Hg25 mi
2:00 PM66 °FOvercast.7 mph62%30.06 "Hg19 mi
1:00 PM67 °FOvercast.8 mph67%30.08 "Hg17 mi
Weather by CustomWeather, © 2014

See weather overviewHow to use our weather pages